When you browse on this site, cookies collect data to enhance your experience and personalize the content and advertising you see.
Visit our Privacy Policy to learn more. By continuing to use the site, you agree to this use of cookies and data.

Stündliche Wetter Dubovka

Heute, 16 Juli, Donnerstag

Zeit Temperatur Niederschläge Wind Luftdruck Luftfeuchtigkeit
00:00 +14°C° 0 mm 1 m/S 748 mmHg 89%
01:00 +14°C° 0 mm 1 m/S 748 mmHg 89%
02:00 +14°C° 0 mm 1 m/S 748 mmHg 90%
03:00 +14°C° 0 mm 1 m/S 748 mmHg 90%
04:00 +14°C° 0 mm 1 m/S 747 mmHg 90%
05:00 +13°C° 0 mm 1 m/S 747 mmHg 91%
06:00 +15°C° 0 mm 1 m/S 747 mmHg 86%
07:00 +18°C° 0 mm 1 m/S 747 mmHg 82%
08:00 +20°C° 0 mm 1 m/S 747 mmHg 78%
09:00 +21°C° 0.1 mm 1 m/S 747 mmHg 72%
10:00 +23°C° 0.1 mm 1 m/S 747 mmHg 67%
11:00 +24°C° 0.1 mm 1 m/S 747 mmHg 62%
12:00 +25°C° 0 mm 1 m/S 747 mmHg 59%
13:00 +25°C° 0 mm 1 m/S 747 mmHg 57%
14:00 +26°C° 0 mm 1 m/S 747 mmHg 54%
15:00 +26°C° 0.1 mm 1 m/S 746 mmHg 55%
16:00 +25°C° 0.1 mm 1 m/S 746 mmHg 56%
17:00 +25°C° 0.1 mm 1 m/S 746 mmHg 57%
18:00 +24°C° 0.1 mm 1 m/S 746 mmHg 65%
19:00 +22°C° 0.1 mm 1 m/S 746 mmHg 73%
20:00 +19°C° 0.1 mm 2 m/S 746 mmHg 81%
21:00 +18°C° 0 mm 2 m/S 746 mmHg 84%
22:00 +17°C° 0 mm 2 m/S 746 mmHg 87%
23:00 +16°C° 0 mm 2 m/S 746 mmHg 90%

Morgen, 17 Juli, Freitag

Zeit Temperatur Niederschläge Wind Luftdruck Luftfeuchtigkeit
00:00 +16°C° 0.3 mm 2 m/S 746 mmHg 91%
01:00 +16°C° 0.3 mm 1 m/S 746 mmHg 92%
02:00 +15°C° 0.3 mm 1 m/S 747 mmHg 93%
03:00 +15°C° 0.2 mm 1 m/S 747 mmHg 93%
04:00 +15°C° 0.2 mm 1 m/S 746 mmHg 94%
05:00 +15°C° 0.2 mm 1 m/S 746 mmHg 94%
06:00 +16°C° 0 mm 1 m/S 747 mmHg 90%
07:00 +18°C° 0 mm 2 m/S 747 mmHg 86%
08:00 +20°C° 0 mm 2 m/S 747 mmHg 82%
09:00 +21°C° 0.2 mm 2 m/S 747 mmHg 77%
10:00 +23°C° 0.2 mm 2 m/S 747 mmHg 72%
11:00 +25°C° 0.2 mm 2 m/S 747 mmHg 67%
12:00 +25°C° 1 mm 2 m/S 747 mmHg 67%
13:00 +25°C° 1 mm 2 m/S 747 mmHg 66%
14:00 +25°C° 1 mm 2 m/S 747 mmHg 66%
15:00 +25°C° 0.6 mm 2 m/S 747 mmHg 69%
16:00 +25°C° 0.6 mm 2 m/S 747 mmHg 72%
17:00 +25°C° 0.6 mm 2 m/S 747 mmHg 75%
18:00 +23°C° 0.2 mm 2 m/S 747 mmHg 78%
19:00 +21°C° 0.2 mm 2 m/S 748 mmHg 82%
20:00 +20°C° 0.2 mm 2 m/S 748 mmHg 85%
21:00 +19°C° 0.1 mm 2 m/S 748 mmHg 88%
22:00 +18°C° 0.1 mm 2 m/S 748 mmHg 90%
23:00 +17°C° 0.1 mm 2 m/S 749 mmHg 92%

übermorgen, 18 Juli, Samstag

Zeit Temperatur Niederschläge Wind Luftdruck Luftfeuchtigkeit
00:00 +17°C° 0.1 mm 2 m/S 749 mmHg 93%
01:00 +17°C° 0.1 mm 2 m/S 749 mmHg 93%
02:00 +16°C° 0.1 mm 2 m/S 749 mmHg 94%
03:00 +16°C° 0 mm 2 m/S 749 mmHg 94%
04:00 +16°C° 0 mm 2 m/S 749 mmHg 95%
05:00 +16°C° 0 mm 2 m/S 749 mmHg 95%
06:00 +17°C° 0 mm 2 m/S 749 mmHg 92%
07:00 +19°C° 0 mm 2 m/S 750 mmHg 89%
08:00 +20°C° 0 mm 2 m/S 750 mmHg 86%
09:00 +23°C° 0.4 mm 2 m/S 750 mmHg 81%
10:00 +24°C° 0.4 mm 2 m/S 750 mmHg 75%
11:00 +26°C° 0.4 mm 2 m/S 750 mmHg 70%
12:00 +26°C° 0.4 mm 2 m/S 750 mmHg 66%
13:00 +27°C° 0.4 mm 2 m/S 750 mmHg 63%
14:00 +28°C° 0.4 mm 2 m/S 750 mmHg 59%
15:00 +27°C° 0.8 mm 3 m/S 750 mmHg 65%
16:00 +26°C° 0.8 mm 3 m/S 749 mmHg 71%
17:00 +25°C° 0.8 mm 3 m/S 749 mmHg 78%
18:00 +24°C° 0.3 mm 3 m/S 749 mmHg 81%
19:00 +22°C° 0.3 mm 3 m/S 750 mmHg 85%
20:00 +20°C° 0.3 mm 3 m/S 750 mmHg 88%
21:00 +20°C° 0.3 mm 3 m/S 750 mmHg 90%
22:00 +19°C° 0.3 mm 2 m/S 750 mmHg 91%
23:00 +18°C° 0.3 mm 2 m/S 750 mmHg 93%

19 Juli, Sonntag

Zeit Temperatur Niederschläge Wind Luftdruck Luftfeuchtigkeit
00:00 +18°C° 0.1 mm 2 m/S 750 mmHg 94%
01:00 +18°C° 0.1 mm 2 m/S 750 mmHg 94%
02:00 +17°C° 0.1 mm 2 m/S 750 mmHg 95%
03:00 +17°C° 0.1 mm 2 m/S 750 mmHg 95%
04:00 +17°C° 0.1 mm 2 m/S 750 mmHg 96%
05:00 +17°C° 0.1 mm 2 m/S 750 mmHg 96%
06:00 +18°C° 0.2 mm 2 m/S 750 mmHg 94%
07:00 +19°C° 0.2 mm 2 m/S 750 mmHg 92%
08:00 +21°C° 0.2 mm 2 m/S 750 mmHg 89%
09:00 +22°C° 1.5 mm 3 m/S 750 mmHg 85%
10:00 +24°C° 1.5 mm 3 m/S 750 mmHg 81%
11:00 +25°C° 1.5 mm 3 m/S 750 mmHg 77%
12:00 +25°C° 2.3 mm 3 m/S 749 mmHg 76%
13:00 +26°C° 2.3 mm 3 m/S 749 mmHg 76%
14:00 +26°C° 2.3 mm 3 m/S 749 mmHg 75%
15:00 +25°C° 1.2 mm 3 m/S 748 mmHg 77%
16:00 +25°C° 1.2 mm 3 m/S 748 mmHg 78%
17:00 +25°C° 1.2 mm 2 m/S 748 mmHg 80%
18:00 +24°C° 0.2 mm 2 m/S 748 mmHg 83%
19:00 +23°C° 0.2 mm 2 m/S 748 mmHg 86%
20:00 +20°C° 0.2 mm 2 m/S 748 mmHg 89%
21:00 +20°C° 0 mm 2 m/S 748 mmHg 90%
22:00 +19°C° 0 mm 2 m/S 748 mmHg 92%
23:00 +18°C° 0 mm 2 m/S 748 mmHg 93%

20 Juli, Montag

Zeit Temperatur Niederschläge Wind Luftdruck Luftfeuchtigkeit
00:00 +18°C° 0.1 mm 2 m/S 748 mmHg 93%
01:00 +17°C° 0.1 mm 2 m/S 748 mmHg 94%
02:00 +17°C° 0.1 mm 2 m/S 747 mmHg 94%
03:00 +17°C° 0 mm 2 m/S 747 mmHg 94%
04:00 +16°C° 0 mm 2 m/S 747 mmHg 94%
05:00 +16°C° 0 mm 2 m/S 747 mmHg 94%
06:00 +17°C° 0 mm 3 m/S 747 mmHg 92%
07:00 +18°C° 0 mm 3 m/S 747 mmHg 89%
08:00 +20°C° 0 mm 3 m/S 747 mmHg 87%
09:00 +21°C° 0.5 mm 3 m/S 747 mmHg 83%
10:00 +22°C° 0.5 mm 3 m/S 747 mmHg 80%
11:00 +23°C° 0.5 mm 4 m/S 746 mmHg 76%
12:00 +25°C° 0.3 mm 4 m/S 746 mmHg 73%
13:00 +25°C° 0.3 mm 3 m/S 746 mmHg 69%
14:00 +26°C° 0.3 mm 3 m/S 746 mmHg 66%
15:00 +26°C° 0.5 mm 3 m/S 745 mmHg 68%
16:00 +26°C° 0.5 mm 3 m/S 745 mmHg 71%
17:00 +25°C° 0.5 mm 2 m/S 745 mmHg 73%
18:00 +24°C° 0.1 mm 2 m/S 745 mmHg 77%
19:00 +21°C° 0.1 mm 2 m/S 745 mmHg 81%
20:00 +21°C° 0.1 mm 1 m/S 744 mmHg 86%
21:00 +20°C° 0 mm 1 m/S 745 mmHg 87%
22:00 +19°C° 0 mm 1 m/S 745 mmHg 88%
23:00 +18°C° 0 mm 1 m/S 745 mmHg 89%

21 Juli, Dienstag

Zeit Temperatur Niederschläge Wind Luftdruck Luftfeuchtigkeit
00:00 +18°C° 0 mm 1 m/S 745 mmHg 90%
01:00 +16°C° 0 mm 0 m/S 745 mmHg 90%
02:00 +15°C° 0 mm 0 m/S 744 mmHg 91%
03:00 +15°C° 0 mm 0 m/S 744 mmHg 91%
04:00 +15°C° 0 mm 0 m/S 744 mmHg 91%
05:00 +15°C° 0 mm 0 m/S 744 mmHg 91%
06:00 +17°C° 0 mm 0 m/S 744 mmHg 86%
07:00 +18°C° 0 mm 0 m/S 744 mmHg 82%
08:00 +20°C° 0 mm 0 m/S 744 mmHg 78%
09:00 +21°C° 0.3 mm 0 m/S 744 mmHg 73%
10:00 +25°C° 0.3 mm 1 m/S 744 mmHg 69%
11:00 +26°C° 0.3 mm 1 m/S 744 mmHg 64%
12:00 +25°C° 0.2 mm 2 m/S 744 mmHg 68%
13:00 +25°C° 0.2 mm 3 m/S 744 mmHg 71%
14:00 +23°C° 0.2 mm 4 m/S 743 mmHg 75%
15:00 +23°C° 0.5 mm 4 m/S 744 mmHg 77%
16:00 +23°C° 0.5 mm 4 m/S 744 mmHg 80%
17:00 +22°C° 0.5 mm 5 m/S 744 mmHg 82%
18:00 +21°C° 0.2 mm 5 m/S 744 mmHg 85%
19:00 +20°C° 0.2 mm 5 m/S 745 mmHg 88%
20:00 +17°C° 0.2 mm 5 m/S 745 mmHg 92%
21:00 +16°C° 0 mm 5 m/S 745 mmHg 92%
22:00 +15°C° 0 mm 5 m/S 746 mmHg 92%
23:00 +14°C° 0 mm 4 m/S 746 mmHg 92%
Mehr zeigen